sat.trackr.live / text

‹ back to catalog

STARLINK-4304

NORAD 53414 · 2022-097AC

PAYLOAD ACTIVE UNKNOWN

§ Identity

Operator
Country
US
Launch date
2022-08-10
Launch site
AFETR
Launch vehicle
Mass (kg)
RCS (m²)

Purposes: comms

External: N2YO · Heavens-Above · Gunter

§ Orbital elements

Epoch: 2026-09-20T03:06:44.505792Z

Period
93.85 min
Inclination
53.1594°
Eccentricity
0.0000840
Mean motion
15.34332755 rev/d
Perigee alt
462.3 km
Apogee alt
463.5 km
Semi-major
6,841.0 km
B*
2.8846e-4
RAAN
309.5783°
Arg perigee
54.2180°
Mean anomaly
305.8900°
Rev number
22,815

§ Raw data

STARLINK-43041 53414U 22097AC  26263.12968178  .00009362  00000+0  28846-3 0  99982 53414  53.1594 309.5783 0000840  54.2180 305.8900 15.34332755228154

JSON: /api/v1/satellites/53414 · /tle

For live sub-satellite position, see the globe view (requires WebGL).

§ Visibility from observer

Set your observer location to see the next 7 days of passes ≥ 10°. The values pass through the URL so the page stays shareable.

No JS? Fill the form by hand. The geolocation button needs JavaScript.